Time,TemperatureF,DewpointF,PressureIn,WindDirection,WindDirectionDegrees,WindSpeedMPH,WindSpeedGustMPH,Humidity,HourlyPrecipIn,Conditions,Clouds,dailyrainin,SoftwareType,DateUTC
2013-02-26 00:00:00,65.8,62.1,29.77,SSW,193,0.0,0.0,88,0.00,,,0.00,Wunderground v.1.15,2013-02-26 05:00:00,
2013-02-26 00:05:00,66.0,62.3,29.77,SSW,193,0.0,0.0,88,0.00,,,0.00,Wunderground v.1.15,2013-02-26 05:05:00,
2013-02-26 00:15:00,67.2,63.8,29.77,SSW,193,0.0,0.0,89,0.00,,,0.00,Wunderground v.1.15,2013-02-26 05:15:00,
2013-02-26 00:20:00,67.5,64.1,29.77,SSW,192,0.0,0.0,89,0.00,,,0.00,Wunderground v.1.15,2013-02-26 05:20:00,
2013-02-26 00:30:00,67.6,64.2,29.76,SSW,192,0.0,0.0,89,0.00,,,0.00,Wunderground v.1.15,2013-02-26 05:30:00,
2013-02-26 00:35:00,67.5,63.8,29.76,SSW,193,0.0,0.0,88,0.00,,,0.00,Wunderground v.1.15,2013-02-26 05:35:00,
2013-02-26 00:40:00,67.7,64.3,29.76,SSW,193,0.0,0.0,89,0.00,,,0.00,Wunderground v.1.15,2013-02-26 05:40:00,
2013-02-26 00:45:00,68.1,64.7,29.76,SSW,192,1.0,3.0,89,0.00,,,0.00,Wunderground v.1.15,2013-02-26 05:45:00,
2013-02-26 00:50:00,68.6,65.2,29.75,SSW,193,2.0,2.0,89,0.00,,,0.00,Wunderground v.1.15,2013-02-26 05:50:00,
2013-02-26 00:55:00,68.8,65.4,29.75,SSW,192,2.0,2.0,89,0.00,,,0.00,Wunderground v.1.15,2013-02-26 05:55:00,
2013-02-26 01:00:00,68.9,65.5,29.76,SSW,193,2.0,2.0,89,0.00,,,0.00,Wunderground v.1.15,2013-02-26 06:00:00,
2013-02-26 01:05:00,69.0,65.3,29.75,SSW,193,2.0,2.0,88,0.00,,,0.00,Wunderground v.1.15,2013-02-26 06:05:00,
2013-02-26 01:10:00,69.1,65.4,29.75,SSW,192,2.0,2.0,88,0.00,,,0.00,Wunderground v.1.15,2013-02-26 06:10:00,
2013-02-26 01:15:00,69.2,65.5,29.75,SSW,193,3.0,3.0,88,0.00,,,0.00,Wunderground v.1.15,2013-02-26 06:15:00,
2013-02-26 01:20:00,69.3,65.3,29.76,SSW,193,3.0,3.0,87,0.00,,,0.00,Wunderground v.1.15,2013-02-26 06:20:00,
2013-02-26 01:25:00,69.2,65.5,29.76,SSW,193,3.0,3.0,88,0.00,,,0.00,Wunderground v.1.15,2013-02-26 06:25:00,
2013-02-26 01:30:00,69.1,65.4,29.75,SSW,193,2.0,2.0,88,0.00,,,0.00,Wunderground v.1.15,2013-02-26 06:30:00,
2013-02-26 01:35:00,69.0,65.3,29.74,SSW,193,2.0,2.0,88,0.00,,,0.00,Wunderground v.1.15,2013-02-26 06:35:00,
2013-02-26 01:40:00,68.8,65.1,29.75,SSW,192,1.0,2.0,88,0.00,,,0.00,Wunderground v.1.15,2013-02-26 06:40:00,
2013-02-26 01:45:00,68.5,64.8,29.75,SSW,193,1.0,2.0,88,0.00,,,0.00,Wunderground v.1.15,2013-02-26 06:45:00,
2013-02-26 01:50:00,68.3,64.6,29.75,SSW,193,0.0,0.0,88,0.00,,,0.00,Wunderground v.1.15,2013-02-26 06:50:00,
2013-02-26 01:55:00,68.1,64.7,29.75,SSW,192,0.0,0.0,89,0.00,,,0.00,Wunderground v.1.15,2013-02-26 06:55:00,
2013-02-26 02:00:00,68.0,64.6,29.75,SSW,193,0.0,0.0,89,0.00,,,0.00,Wunderground v.1.15,2013-02-26 07:00:00,
2013-02-26 02:05:00,68.0,64.6,29.75,SSW,193,1.0,2.0,89,0.00,,,0.00,Wunderground v.1.15,2013-02-26 07:05:00,
2013-02-26 02:10:00,68.3,65.3,29.74,SSW,192,2.0,2.0,90,0.00,,,0.00,Wunderground v.1.15,2013-02-26 07:10:00,
2013-02-26 02:20:00,68.6,65.2,29.75,SSW,193,2.0,2.0,89,0.00,,,0.00,Wunderground v.1.15,2013-02-26 07:20:00,
2013-02-26 02:25:00,68.9,65.5,29.74,SSW,193,3.0,3.0,89,0.00,,,0.00,Wunderground v.1.15,2013-02-26 07:25:00,
2013-02-26 02:30:00,68.9,65.5,29.74,SSW,193,3.0,3.0,89,0.00,,,0.00,Wunderground v.1.15,2013-02-26 07:30:00,
2013-02-26 02:35:00,68.8,65.4,29.74,SSW,193,2.0,3.0,89,0.00,,,0.00,Wunderground v.1.15,2013-02-26 07:35:00,
2013-02-26 02:40:00,68.8,65.4,29.74,SSW,193,2.0,2.0,89,0.00,,,0.00,Wunderground v.1.15,2013-02-26 07:40:00,
2013-02-26 02:45:00,68.8,65.4,29.74,SSW,193,3.0,3.0,89,0.00,,,0.00,Wunderground v.1.15,2013-02-26 07:45:00,
2013-02-26 02:50:00,69.0,65.9,29.73,SSW,193,3.0,3.0,90,0.00,,,0.00,Wunderground v.1.15,2013-02-26 07:50:00,
2013-02-26 02:55:00,69.0,65.9,29.73,SSW,193,3.0,3.0,90,0.00,,,0.00,Wunderground v.1.15,2013-02-26 07:55:00,
2013-02-26 03:00:00,69.1,66.0,29.74,SSW,192,4.0,4.0,90,0.00,,,0.00,Wunderground v.1.15,2013-02-26 08:00:00,
2013-02-26 03:05:00,69.0,65.9,29.74,SSW,192,3.0,4.0,90,0.00,,,0.00,Wunderground v.1.15,2013-02-26 08:05:00,
2013-02-26 03:15:00,69.0,65.9,29.73,SSW,192,3.0,4.0,90,0.00,,,0.00,Wunderground v.1.15,2013-02-26 08:15:00,
2013-02-26 03:20:00,68.9,65.8,29.73,SSW,193,4.0,4.0,90,0.00,,,0.00,Wunderground v.1.15,2013-02-26 08:20:00,
2013-02-26 03:25:00,68.8,65.7,29.73,SSW,193,4.0,6.0,90,0.00,,,0.00,Wunderground v.1.15,2013-02-26 08:25:00,
2013-02-26 03:30:00,68.8,66.1,29.72,SSW,193,4.0,4.0,91,0.00,,,0.00,Wunderground v.1.15,2013-02-26 08:30:00,
2013-02-26 03:35:00,69.1,66.0,29.72,SSE,149,5.0,6.0,90,0.00,,,0.00,Wunderground v.1.15,2013-02-26 08:35:00,
2013-02-26 03:40:00,69.3,66.6,29.72,SE,146,5.0,5.0,91,0.00,,,0.00,Wunderground v.1.15,2013-02-26 08:40:00,
2013-02-26 03:50:00,69.4,66.7,29.71,SE,146,6.0,6.0,91,0.00,,,0.00,Wunderground v.1.15,2013-02-26 08:50:00,
2013-02-26 03:55:00,69.4,66.7,29.71,SSE,149,5.0,6.0,91,0.00,,,0.00,Wunderground v.1.15,2013-02-26 08:55:00,
2013-02-26 04:00:00,69.3,66.6,29.71,SSE,148,5.0,5.0,91,0.00,,,0.00,Wunderground v.1.15,2013-02-26 09:00:00,
2013-02-26 04:05:00,69.3,66.6,29.71,SSE,148,4.0,5.0,91,0.00,,,0.00,Wunderground v.1.15,2013-02-26 09:05:00,
2013-02-26 04:10:00,69.2,66.8,29.71,SSE,148,4.0,6.0,92,0.00,,,0.00,Wunderground v.1.15,2013-02-26 09:10:00,
2013-02-26 04:15:00,69.1,66.7,29.71,SSE,148,4.0,6.0,92,0.00,,,0.00,Wunderground v.1.15,2013-02-26 09:15:00,
2013-02-26 04:20:00,69.2,66.8,29.71,SSE,148,5.0,6.0,92,0.00,,,0.00,Wunderground v.1.15,2013-02-26 09:20:00,
2013-02-26 04:25:00,69.2,66.8,29.71,SE,146,5.0,6.0,92,0.00,,,0.00,Wunderground v.1.15,2013-02-26 09:25:00,
2013-02-26 04:30:00,69.2,66.8,29.71,SE,146,5.0,5.0,92,0.00,,,0.00,Wunderground v.1.15,2013-02-26 09:30:00,
2013-02-26 04:35:00,69.3,66.9,29.72,SE,146,4.0,5.0,92,0.00,,,0.00,Wunderground v.1.15,2013-02-26 09:35:00,
2013-02-26 04:40:00,69.4,67.0,29.72,SE,146,4.0,4.0,92,0.00,,,0.00,Wunderground v.1.15,2013-02-26 09:40:00,
2013-02-26 04:50:00,69.5,67.1,29.73,SE,146,4.0,4.0,92,0.00,,,0.00,Wunderground v.1.15,2013-02-26 09:50:00,
2013-02-26 04:55:00,69.4,67.0,29.74,SE,146,3.0,4.0,92,0.00,,,0.00,Wunderground v.1.15,2013-02-26 09:55:00,
2013-02-26 05:00:00,69.4,67.0,29.74,SE,146,3.0,3.0,92,0.00,,,0.00,Wunderground v.1.15,2013-02-26 10:00:00,
2013-02-26 05:05:00,69.4,67.0,29.73,SE,146,3.0,3.0,92,0.00,,,0.00,Wunderground v.1.15,2013-02-26 10:05:00,
2013-02-26 05:10:00,69.4,67.0,29.73,SE,146,4.0,4.0,92,0.00,,,0.00,Wunderground v.1.15,2013-02-26 10:10:00,
2013-02-26 05:15:00,69.4,67.0,29.74,SE,146,4.0,4.0,92,0.00,,,0.00,Wunderground v.1.15,2013-02-26 10:15:00,
2013-02-26 05:20:00,69.4,67.0,29.74,SE,146,4.0,4.0,92,0.00,,,0.00,Wunderground v.1.15,2013-02-26 10:20:00,
2013-02-26 05:25:00,69.4,67.0,29.73,SE,146,4.0,4.0,92,0.00,,,0.00,Wunderground v.1.15,2013-02-26 10:25:00,
2013-02-26 05:30:00,69.3,66.9,29.73,SE,146,4.0,4.0,92,0.00,,,0.00,Wunderground v.1.15,2013-02-26 10:30:00,
2013-02-26 05:35:00,69.2,66.8,29.73,SE,146,4.0,5.0,92,0.00,,,0.00,Wunderground v.1.15,2013-02-26 10:35:00,
2013-02-26 05:40:00,69.2,66.8,29.73,SE,146,4.0,4.0,92,0.00,,,0.00,Wunderground v.1.15,2013-02-26 10:40:00,
2013-02-26 05:45:00,69.2,66.8,29.73,SE,146,4.0,5.0,92,0.00,,,0.00,Wunderground v.1.15,2013-02-26 10:45:00,
2013-02-26 05:50:00,69.2,66.8,29.74,SE,146,4.0,4.0,92,0.00,,,0.00,Wunderground v.1.15,2013-02-26 10:50:00,
2013-02-26 05:55:00,69.3,67.2,29.73,SSE,147,5.0,7.0,93,0.00,,,0.00,Wunderground v.1.15,2013-02-26 10:55:00,
2013-02-26 06:00:00,69.6,67.5,29.73,SE,142,6.0,6.0,93,0.00,,,0.00,Wunderground v.1.15,2013-02-26 11:00:00,
2013-02-26 06:05:00,69.8,67.7,29.74,SSE,149,5.0,6.0,93,0.00,,,0.00,Wunderground v.1.15,2013-02-26 11:05:00,
2013-02-26 06:15:00,70.3,68.2,29.74,SSE,161,4.0,5.0,93,0.00,,,0.00,Wunderground v.1.15,2013-02-26 11:15:00,
2013-02-26 06:20:00,70.7,68.6,29.74,SSE,163,5.0,6.0,93,0.00,,,0.00,Wunderground v.1.15,2013-02-26 11:20:00,
2013-02-26 06:25:00,71.1,69.0,29.74,SSE,159,7.0,7.0,93,0.00,,,0.00,Wunderground v.1.15,2013-02-26 11:25:00,
2013-02-26 06:30:00,71.3,69.2,29.74,SSE,165,8.0,8.0,93,0.00,,,0.00,Wunderground v.1.15,2013-02-26 11:30:00,
2013-02-26 06:35:00,71.3,69.2,29.74,SSE,167,7.0,8.0,93,0.00,,,0.00,Wunderground v.1.15,2013-02-26 11:35:00,
2013-02-26 06:40:00,71.3,69.2,29.74,South,171,6.0,6.0,93,0.00,,,0.00,Wunderground v.1.15,2013-02-26 11:40:00,
2013-02-26 06:45:00,71.3,69.2,29.74,South,175,5.0,7.0,93,0.00,,,0.00,Wunderground v.1.15,2013-02-26 11:45:00,
2013-02-26 06:50:00,71.4,69.3,29.73,SSE,166,6.0,6.0,93,0.00,,,0.00,Wunderground v.1.15,2013-02-26 11:50:00,
2013-02-26 06:55:00,71.5,69.4,29.73,SSE,163,6.0,6.0,93,0.00,,,0.00,Wunderground v.1.15,2013-02-26 11:55:00,
2013-02-26 07:00:00,71.6,69.5,29.74,SSE,161,6.0,7.0,93,0.00,,,0.00,Wunderground v.1.15,2013-02-26 12:00:00,
2013-02-26 07:05:00,71.6,69.5,29.74,SSE,159,6.0,7.0,93,0.00,,,0.00,Wunderground v.1.15,2013-02-26 12:05:00,
2013-02-26 07:10:00,71.7,69.6,29.73,SSE,153,7.0,7.0,93,0.00,,,0.00,Wunderground v.1.15,2013-02-26 12:10:00,
2013-02-26 07:15:00,71.8,69.7,29.73,SSE,155,7.0,7.0,93,0.00,,,0.00,Wunderground v.1.15,2013-02-26 12:15:00,
2013-02-26 07:20:00,71.9,69.8,29.73,SSE,155,7.0,10.0,93,0.00,,,0.00,Wunderground v.1.15,2013-02-26 12:20:00,
2013-02-26 07:25:00,72.0,69.9,29.73,SSE,153,8.0,10.0,93,0.00,,,0.00,Wunderground v.1.15,2013-02-26 12:25:00,
2013-02-26 07:30:00,72.1,70.0,29.73,SSE,154,8.0,9.0,93,0.00,,,0.00,Wunderground v.1.15,2013-02-26 12:30:00,
2013-02-26 07:35:00,72.3,70.5,29.73,SSE,157,8.0,11.0,94,0.00,,,0.00,Wunderground v.1.15,2013-02-26 12:35:00,
2013-02-26 07:40:00,72.6,70.5,29.73,SSE,155,9.0,11.0,93,0.00,,,0.00,Wunderground v.1.15,2013-02-26 12:40:00,
2013-02-26 07:45:00,72.8,70.7,29.74,South,176,10.0,11.0,93,0.00,,,0.00,Wunderground v.1.15,2013-02-26 12:45:00,
2013-02-26 07:50:00,73.0,70.9,29.74,SSE,157,9.0,14.0,93,0.00,,,0.00,Wunderground v.1.15,2013-02-26 12:50:00,
2013-02-26 07:55:00,73.2,71.1,29.74,South,172,9.0,14.0,93,0.00,,,0.00,Wunderground v.1.15,2013-02-26 12:55:00,
2013-02-26 08:00:00,73.3,71.2,29.75,South,171,9.0,9.0,93,0.00,,,0.00,Wunderground v.1.15,2013-02-26 13:00:00,
2013-02-26 08:05:00,73.5,71.4,29.75,SSE,157,9.0,10.0,93,0.00,,,0.00,Wunderground v.1.15,2013-02-26 13:05:00,
2013-02-26 08:15:00,73.7,71.5,29.75,SSE,165,10.0,13.0,93,0.00,,,0.00,Wunderground v.1.15,2013-02-26 13:15:00,
2013-02-26 08:20:00,73.7,71.5,29.75,SSE,162,12.0,14.0,93,0.00,,,0.00,Wunderground v.1.15,2013-02-26 13:20:00,
2013-02-26 08:25:00,73.9,71.4,29.75,South,175,13.0,14.0,92,0.00,,,0.00,Wunderground v.1.15,2013-02-26 13:25:00,
2013-02-26 08:30:00,74.0,71.5,29.75,South,191,12.0,12.0,92,0.00,,,0.00,Wunderground v.1.15,2013-02-26 13:30:00,
2013-02-26 08:40:00,74.1,71.6,29.75,South,170,13.0,14.0,92,0.00,,,0.00,Wunderground v.1.15,2013-02-26 13:40:00,
2013-02-26 08:45:00,74.1,71.6,29.76,South,169,12.0,14.0,92,0.00,,,0.00,Wunderground v.1.15,2013-02-26 13:45:00,
2013-02-26 08:50:00,74.2,71.7,29.75,SSE,165,11.0,11.0,92,0.00,,,0.00,Wunderground v.1.15,2013-02-26 13:50:00,
2013-02-26 09:00:00,74.4,71.6,29.75,South,185,11.0,17.0,91,0.00,,,0.00,Wunderground v.1.15,2013-02-26 14:00:00,
2013-02-26 09:05:00,74.5,71.7,29.75,SSE,155,11.0,19.0,91,0.00,,,0.00,Wunderground v.1.15,2013-02-26 14:05:00,
2013-02-26 09:10:00,74.6,71.8,29.74,SSE,163,13.0,14.0,91,0.00,,,0.00,Wunderground v.1.15,2013-02-26 14:10:00,
2013-02-26 09:15:00,74.8,71.7,29.74,South,171,13.0,14.0,90,0.00,,,0.00,Wunderground v.1.15,2013-02-26 14:15:00,
2013-02-26 09:20:00,74.9,71.8,29.73,SSE,156,13.0,17.0,90,0.00,,,0.00,Wunderground v.1.15,2013-02-26 14:20:00,
2013-02-26 09:25:00,75.0,71.9,29.73,SE,139,14.0,17.0,90,0.00,,,0.00,Wunderground v.1.15,2013-02-26 14:25:00,
2013-02-26 09:30:00,75.1,72.0,29.74,SSE,158,12.0,12.0,90,0.00,,,0.00,Wunderground v.1.15,2013-02-26 14:30:00,
2013-02-26 09:40:00,75.5,72.0,29.77,SSE,153,12.0,12.0,89,0.00,,,0.00,Wunderground v.1.15,2013-02-26 14:40:00,
2013-02-26 09:45:00,75.6,71.8,29.77,SSE,163,11.0,16.0,88,0.00,,,0.00,Wunderground v.1.15,2013-02-26 14:45:00,
2013-02-26 09:50:00,75.5,71.7,29.77,South,173,12.0,16.0,88,0.00,,,0.00,Wunderground v.1.15,2013-02-26 14:50:00,
2013-02-26 09:55:00,75.6,71.8,29.78,SSE,165,11.0,16.0,88,0.00,,,0.00,Wunderground v.1.15,2013-02-26 14:55:00,
2013-02-26 10:00:00,75.6,71.8,29.78,SSE,168,9.0,10.0,88,0.00,,,0.00,Wunderground v.1.15,2013-02-26 15:00:00,
2013-02-26 10:05:00,75.5,71.7,29.78,South,173,9.0,10.0,88,0.00,,,0.00,Wunderground v.1.15,2013-02-26 15:05:00,
2013-02-26 10:10:00,75.3,71.5,29.78,SSW,205,8.0,8.0,88,0.00,,,0.00,Wunderground v.1.15,2013-02-26 15:10:00,
2013-02-26 10:15:00,75.1,71.3,29.77,SSE,164,8.0,8.0,88,0.00,,,0.00,Wunderground v.1.15,2013-02-26 15:15:00,
2013-02-26 10:20:00,75.0,71.2,29.78,South,179,9.0,9.0,88,0.00,,,0.00,Wunderground v.1.15,2013-02-26 15:20:00,
2013-02-26 10:30:00,75.2,71.4,29.78,South,184,9.0,10.0,88,0.00,,,0.00,Wunderground v.1.15,2013-02-26 15:30:00,
2013-02-26 10:35:00,75.2,71.4,29.79,South,170,7.0,11.0,88,0.00,,,0.00,Wunderground v.1.15,2013-02-26 15:35:00,
2013-02-26 10:40:00,75.2,71.4,29.78,SSE,165,7.0,7.0,88,0.00,,,0.00,Wunderground v.1.15,2013-02-26 15:40:00,
2013-02-26 10:45:00,75.2,71.4,29.79,South,180,8.0,8.0,88,0.00,,,0.00,Wunderground v.1.15,2013-02-26 15:45:00,
2013-02-26 10:50:00,75.2,71.4,29.79,South,187,8.0,8.0,88,0.00,,,0.00,Wunderground v.1.15,2013-02-26 15:50:00,
2013-02-26 10:55:00,75.1,71.3,29.79,SSE,161,8.0,11.0,88,0.00,,,0.00,Wunderground v.1.15,2013-02-26 15:55:00,
2013-02-26 11:00:00,75.1,71.3,29.78,South,188,8.0,8.0,88,0.00,,,0.00,Wunderground v.1.15,2013-02-26 16:00:00,
2013-02-26 11:05:00,75.0,71.2,29.77,SSE,152,8.0,10.0,88,0.00,,,0.00,Wunderground v.1.15,2013-02-26 16:05:00,
2013-02-26 11:10:00,74.9,71.1,29.78,South,172,8.0,8.0,88,0.00,,,0.00,Wunderground v.1.15,2013-02-26 16:10:00,
2013-02-26 11:15:00,74.7,70.9,29.78,South,172,8.0,8.0,88,0.00,,,0.01,Wunderground v.1.15,2013-02-26 16:15:00,
2013-02-26 11:20:00,74.4,70.9,29.78,South,182,7.0,7.0,89,0.00,,,0.01,Wunderground v.1.15,2013-02-26 16:20:00,
2013-02-26 11:25:00,74.1,71.0,29.78,South,178,6.0,7.0,90,0.00,,,0.01,Wunderground v.1.15,2013-02-26 16:25:00,
2013-02-26 11:30:00,74.1,71.3,29.77,South,176,5.0,5.0,91,0.00,,,0.01,Wunderground v.1.15,2013-02-26 16:30:00,
2013-02-26 11:35:00,74.2,71.4,29.78,South,184,5.0,5.0,91,0.00,,,0.01,Wunderground v.1.15,2013-02-26 16:35:00,
2013-02-26 11:40:00,74.2,71.4,29.78,South,173,5.0,6.0,91,0.00,,,0.01,Wunderground v.1.15,2013-02-26 16:40:00,
2013-02-26 11:45:00,74.2,71.4,29.78,South,169,6.0,6.0,91,0.00,,,0.01,Wunderground v.1.15,2013-02-26 16:45:00,
2013-02-26 11:50:00,74.2,71.4,29.77,SSE,164,7.0,7.0,91,0.00,,,0.01,Wunderground v.1.15,2013-02-26 16:50:00,
2013-02-26 11:55:00,74.1,71.3,29.78,South,172,7.0,7.0,91,0.00,,,0.01,Wunderground v.1.15,2013-02-26 16:55:00,
2013-02-26 12:00:00,74.2,71.4,29.77,SSW,192,6.0,9.0,91,0.00,,,0.01,Wunderground v.1.15,2013-02-26 17:00:00,
2013-02-26 12:05:00,74.4,71.6,29.77,SSE,168,7.0,9.0,91,0.00,,,0.01,Wunderground v.1.15,2013-02-26 17:05:00,
2013-02-26 12:15:00,74.6,71.8,29.77,South,180,8.0,8.0,91,0.00,,,0.01,Wunderground v.1.15,2013-02-26 17:15:00,
2013-02-26 12:20:00,74.6,71.8,29.77,South,173,7.0,7.0,91,0.00,,,0.02,Wunderground v.1.15,2013-02-26 17:20:00,
2013-02-26 12:25:00,74.6,71.8,29.76,South,188,6.0,7.0,91,0.00,,,0.02,Wunderground v.1.15,2013-02-26 17:25:00,
2013-02-26 12:30:00,74.8,72.0,29.76,SSW,195,6.0,6.0,91,0.00,,,0.02,Wunderground v.1.15,2013-02-26 17:30:00,
2013-02-26 12:35:00,74.9,72.4,29.76,South,169,6.0,7.0,92,0.00,,,0.02,Wunderground v.1.15,2013-02-26 17:35:00,
2013-02-26 12:40:00,75.7,73.2,29.76,South,177,6.0,6.0,92,0.00,,,0.02,Wunderground v.1.15,2013-02-26 17:40:00,
2013-02-26 12:45:00,76.5,74.0,29.76,SSW,205,6.0,7.0,92,0.00,,,0.02,Wunderground v.1.15,2013-02-26 17:45:00,
2013-02-26 12:55:00,76.8,73.6,29.76,SW,230,6.0,7.0,90,0.00,,,0.02,Wunderground v.1.15,2013-02-26 17:55:00,
2013-02-26 13:00:00,76.6,73.1,29.76,SSW,194,6.0,6.0,89,0.00,,,0.02,Wunderground v.1.15,2013-02-26 18:00:00,
2013-02-26 13:05:00,76.2,73.1,29.76,SW,234,6.0,6.0,90,0.00,,,0.02,Wunderground v.1.15,2013-02-26 18:05:00,
2013-02-26 13:10:00,75.6,71.8,29.77,SSW,196,6.0,10.0,88,0.00,,,0.02,Wunderground v.1.15,2013-02-26 18:10:00,
2013-02-26 13:20:00,72.1,68.7,29.77,West,275,3.0,3.0,89,0.00,,,0.03,Wunderground v.1.15,2013-02-26 18:20:00,
2013-02-26 13:25:00,71.1,68.0,29.77,West,269,2.0,3.0,90,0.24,,,0.06,Wunderground v.1.15,2013-02-26 18:25:00,
2013-02-26 13:30:00,70.4,67.6,29.77,SW,230,3.0,3.0,91,0.08,,,0.06,Wunderground v.1.15,2013-02-26 18:30:00,
2013-02-26 13:35:00,70.1,67.7,29.77,West,268,3.0,3.0,92,0.07,,,0.07,Wunderground v.1.15,2013-02-26 18:35:00,
2013-02-26 13:40:00,69.9,67.8,29.77,West,267,2.0,3.0,93,0.11,,,0.08,Wunderground v.1.15,2013-02-26 18:40:00,
2013-02-26 13:45:00,69.8,67.7,29.77,West,265,1.0,3.0,93,0.07,,,0.08,Wunderground v.1.15,2013-02-26 18:45:00,
2013-02-26 13:50:00,69.8,67.7,29.76,West,264,1.0,3.0,93,0.04,,,0.08,Wunderground v.1.15,2013-02-26 18:50:00,
2013-02-26 13:55:00,70.0,67.9,29.76,West,264,1.0,3.0,93,0.00,,,0.08,Wunderground v.1.15,2013-02-26 18:55:00,
2013-02-26 14:00:00,70.2,68.4,29.75,West,261,1.0,1.0,94,0.00,,,0.08,Wunderground v.1.15,2013-02-26 19:00:00,
2013-02-26 14:05:00,70.4,68.6,29.75,SW,234,1.0,2.0,94,0.00,,,0.08,Wunderground v.1.15,2013-02-26 19:05:00,
2013-02-26 14:10:00,70.4,68.3,29.75,SW,235,2.0,2.0,93,0.00,,,0.08,Wunderground v.1.15,2013-02-26 19:10:00,
2013-02-26 14:15:00,70.3,68.2,29.75,SW,234,2.0,3.0,93,0.00,,,0.08,Wunderground v.1.15,2013-02-26 19:15:00,
2013-02-26 14:20:00,70.0,67.9,29.75,WSW,247,3.0,3.0,93,0.00,,,0.08,Wunderground v.1.15,2013-02-26 19:20:00,
2013-02-26 14:30:00,69.6,67.5,29.75,SSW,194,3.0,4.0,93,0.00,,,0.08,Wunderground v.1.15,2013-02-26 19:30:00,
2013-02-26 14:40:00,69.8,68.0,29.75,SSW,202,2.0,2.0,94,0.00,,,0.08,Wunderground v.1.15,2013-02-26 19:40:00,
2013-02-26 14:45:00,70.2,68.4,29.75,SSW,202,2.0,4.0,94,0.00,,,0.08,Wunderground v.1.15,2013-02-26 19:45:00,
2013-02-26 14:50:00,70.9,69.1,29.74,SSW,194,2.0,6.0,94,0.00,,,0.08,Wunderground v.1.15,2013-02-26 19:50:00,
2013-02-26 14:55:00,71.4,69.6,29.74,SSW,208,4.0,6.0,94,0.00,,,0.08,Wunderground v.1.15,2013-02-26 19:55:00,
2013-02-26 15:00:00,71.7,69.9,29.74,SSW,211,5.0,5.0,94,0.00,,,0.08,Wunderground v.1.15,2013-02-26 20:00:00,
2013-02-26 15:05:00,72.1,70.3,29.74,South,186,4.0,5.0,94,0.00,,,0.08,Wunderground v.1.15,2013-02-26 20:05:00,
2013-02-26 15:10:00,72.2,70.1,29.74,SW,218,3.0,3.0,93,0.00,,,0.08,Wunderground v.1.15,2013-02-26 20:10:00,
2013-02-26 15:15:00,72.2,70.1,29.74,South,191,5.0,5.0,93,0.00,,,0.08,Wunderground v.1.15,2013-02-26 20:15:00,
2013-02-26 15:20:00,72.3,70.2,29.75,SSW,194,4.0,4.0,93,0.00,,,0.08,Wunderground v.1.15,2013-02-26 20:20:00,
2013-02-26 15:25:00,72.4,70.3,29.75,SSW,212,5.0,5.0,93,0.00,,,0.08,Wunderground v.1.15,2013-02-26 20:25:00,
2013-02-26 15:35:00,72.6,70.5,29.74,SSW,202,5.0,11.0,93,0.00,,,0.08,Wunderground v.1.15,2013-02-26 20:35:00,
2013-02-26 15:40:00,72.7,70.6,29.75,SSW,197,5.0,5.0,93,0.00,,,0.08,Wunderground v.1.15,2013-02-26 20:40:00,
2013-02-26 15:50:00,73.0,70.9,29.75,SW,222,3.0,5.0,93,0.00,,,0.08,Wunderground v.1.15,2013-02-26 20:50:00,
2013-02-26 15:55:00,73.1,71.0,29.75,SSW,200,3.0,5.0,93,0.00,,,0.08,Wunderground v.1.15,2013-02-26 20:55:00,
2013-02-26 16:00:00,73.1,71.0,29.75,SSW,206,4.0,4.0,93,0.00,,,0.08,Wunderground v.1.15,2013-02-26 21:00:00,
2013-02-26 16:05:00,73.1,71.0,29.74,SSW,200,3.0,10.0,93,0.00,,,0.08,Wunderground v.1.15,2013-02-26 21:05:00,
2013-02-26 16:10:00,73.1,70.6,29.74,SW,222,4.0,4.0,92,0.00,,,0.08,Wunderground v.1.15,2013-02-26 21:10:00,
2013-02-26 16:15:00,73.3,70.8,29.74,SSW,205,4.0,4.0,92,0.00,,,0.08,Wunderground v.1.15,2013-02-26 21:15:00,
2013-02-26 16:20:00,73.3,70.8,29.74,SSW,208,3.0,3.0,92,0.00,,,0.08,Wunderground v.1.15,2013-02-26 21:20:00,
2013-02-26 16:25:00,73.3,70.8,29.74,SSW,192,3.0,4.0,92,0.00,,,0.08,Wunderground v.1.15,2013-02-26 21:25:00,
2013-02-26 16:30:00,73.2,70.4,29.74,SW,232,3.0,4.0,91,0.00,,,0.08,Wunderground v.1.15,2013-02-26 21:30:00,
2013-02-26 16:35:00,73.1,70.3,29.75,WSW,256,4.0,4.0,91,0.00,,,0.08,Wunderground v.1.15,2013-02-26 21:35:00,
2013-02-26 16:40:00,73.2,70.4,29.75,SW,219,4.0,4.0,91,0.00,,,0.08,Wunderground v.1.15,2013-02-26 21:40:00,
2013-02-26 16:45:00,73.4,70.6,29.75,WSW,245,4.0,4.0,91,0.00,,,0.08,Wunderground v.1.15,2013-02-26 21:45:00,
2013-02-26 16:50:00,73.8,71.0,29.75,SSW,209,4.0,4.0,91,0.00,,,0.08,Wunderground v.1.15,2013-02-26 21:50:00,
2013-02-26 16:55:00,74.0,70.9,29.75,South,181,4.0,4.0,90,0.00,,,0.08,Wunderground v.1.15,2013-02-26 21:55:00,
2013-02-26 17:00:00,74.1,70.6,29.75,West,281,4.0,4.0,89,0.00,,,0.08,Wunderground v.1.15,2013-02-26 22:00:00,
2013-02-26 17:05:00,74.3,70.5,29.75,SW,232,2.0,4.0,88,0.00,,,0.08,Wunderground v.1.15,2013-02-26 22:05:00,
2013-02-26 17:10:00,74.4,70.6,29.76,SSW,208,2.0,2.0,88,0.00,,,0.08,Wunderground v.1.15,2013-02-26 22:10:00,
2013-02-26 17:15:00,74.5,70.4,29.76,WSW,246,2.0,2.0,87,0.00,,,0.08,Wunderground v.1.15,2013-02-26 22:15:00,
2013-02-26 17:20:00,74.5,70.0,29.75,SW,236,2.0,4.0,86,0.00,,,0.08,Wunderground v.1.15,2013-02-26 22:20:00,
2013-02-26 17:25:00,74.3,69.8,29.75,SW,233,3.0,7.0,86,0.00,,,0.08,Wunderground v.1.15,2013-02-26 22:25:00,
2013-02-26 17:30:00,74.1,69.6,29.75,SSW,202,3.0,3.0,86,0.00,,,0.08,Wunderground v.1.15,2013-02-26 22:30:00,
2013-02-26 17:40:00,73.3,68.9,29.76,SW,227,1.0,2.0,86,0.00,,,0.08,Wunderground v.1.15,2013-02-26 22:40:00,
2013-02-26 17:45:00,72.9,68.1,29.76,West,274,2.0,2.0,85,0.00,,,0.08,Wunderground v.1.15,2013-02-26 22:45:00,
2013-02-26 17:55:00,72.2,67.8,29.76,West,271,1.0,2.0,86,0.00,,,0.08,Wunderground v.1.15,2013-02-26 22:55:00,
2013-02-26 18:00:00,72.0,67.6,29.76,West,268,2.0,2.0,86,0.00,,,0.08,Wunderground v.1.15,2013-02-26 23:00:00,
2013-02-26 18:05:00,71.8,67.7,29.76,West,265,2.0,5.0,87,0.00,,,0.08,Wunderground v.1.15,2013-02-26 23:05:00,
2013-02-26 18:10:00,71.6,67.5,29.76,West,265,1.0,1.0,87,0.00,,,0.08,Wunderground v.1.15,2013-02-26 23:10:00,
2013-02-26 18:15:00,71.4,67.3,29.76,West,265,1.0,1.0,87,0.00,,,0.08,Wunderground v.1.15,2013-02-26 23:15:00,
2013-02-26 18:20:00,71.3,67.2,29.77,West,265,0.0,0.0,87,0.00,,,0.08,Wunderground v.1.15,2013-02-26 23:20:00,
2013-02-26 18:25:00,71.0,67.3,29.77,West,265,0.0,0.0,88,0.00,,,0.08,Wunderground v.1.15,2013-02-26 23:25:00,
2013-02-26 18:35:00,70.5,66.8,29.77,West,265,0.0,0.0,88,0.00,,,0.08,Wunderground v.1.15,2013-02-26 23:35:00,
2013-02-26 18:40:00,70.2,66.5,29.77,West,265,0.0,0.0,88,0.00,,,0.08,Wunderground v.1.15,2013-02-26 23:40:00,
2013-02-26 18:45:00,70.0,66.6,29.77,West,265,0.0,0.0,89,0.00,,,0.08,Wunderground v.1.15,2013-02-26 23:45:00,
2013-02-26 18:50:00,69.7,66.3,29.78,West,265,0.0,0.0,89,0.00,,,0.08,Wunderground v.1.15,2013-02-26 23:50:00,
2013-02-26 18:55:00,69.4,66.0,29.78,West,265,0.0,0.0,89,0.00,,,0.08,Wunderground v.1.15,2013-02-26 23:55:00,
2013-02-26 19:00:00,69.2,65.8,29.78,West,265,0.0,0.0,89,0.00,,,0.08,Wunderground v.1.15,2013-02-27 00:00:00,
2013-02-26 19:05:00,68.9,65.5,29.78,West,265,0.0,0.0,89,0.00,,,0.08,Wunderground v.1.15,2013-02-27 00:05:00,
2013-02-26 19:10:00,68.5,65.1,29.79,West,265,0.0,0.0,89,0.00,,,0.08,Wunderground v.1.15,2013-02-27 00:10:00,
2013-02-26 19:15:00,68.1,64.7,29.79,West,265,0.0,1.0,89,0.00,,,0.08,Wunderground v.1.15,2013-02-27 00:15:00,
2013-02-26 19:20:00,67.7,64.3,29.79,West,265,1.0,1.0,89,0.00,,,0.08,Wunderground v.1.15,2013-02-27 00:20:00,
2013-02-26 19:30:00,67.0,63.3,29.79,West,265,1.0,1.0,88,0.00,,,0.08,Wunderground v.1.15,2013-02-27 00:30:00,
2013-02-26 19:35:00,66.8,63.1,29.79,West,265,1.0,1.0,88,0.00,,,0.08,Wunderground v.1.15,2013-02-27 00:35:00,
2013-02-26 19:40:00,66.6,62.9,29.79,West,265,0.0,0.0,88,0.00,,,0.08,Wunderground v.1.15,2013-02-27 00:40:00,
2013-02-26 19:45:00,66.4,62.7,29.79,West,265,0.0,0.0,88,0.00,,,0.08,Wunderground v.1.15,2013-02-27 00:45:00,
2013-02-26 19:50:00,66.2,62.5,29.80,West,265,0.0,0.0,88,0.00,,,0.08,Wunderground v.1.15,2013-02-27 00:50:00,
2013-02-26 19:55:00,66.0,62.3,29.80,West,265,0.0,0.0,88,0.00,,,0.08,Wunderground v.1.15,2013-02-27 00:55:00,
2013-02-26 20:05:00,65.4,62.1,29.80,West,265,0.0,0.0,89,0.00,,,0.08,Wunderground v.1.15,2013-02-27 01:05:00,
2013-02-26 20:10:00,65.1,61.8,29.81,West,265,0.0,0.0,89,0.00,,,0.08,Wunderground v.1.15,2013-02-27 01:10:00,
2013-02-26 20:15:00,64.7,61.4,29.81,West,265,0.0,0.0,89,0.00,,,0.08,Wunderground v.1.15,2013-02-27 01:15:00,
2013-02-26 20:20:00,64.3,61.0,29.81,West,265,0.0,0.0,89,0.00,,,0.08,Wunderground v.1.15,2013-02-27 01:20:00,
2013-02-26 20:25:00,64.0,60.7,29.81,West,265,0.0,0.0,89,0.00,,,0.08,Wunderground v.1.15,2013-02-27 01:25:00,
2013-02-26 20:30:00,63.7,60.4,29.81,West,265,0.0,0.0,89,0.00,,,0.08,Wunderground v.1.15,2013-02-27 01:30:00,
2013-02-26 20:35:00,63.2,60.2,29.81,West,265,0.0,0.0,90,0.00,,,0.08,Wunderground v.1.15,2013-02-27 01:35:00,
2013-02-26 20:40:00,63.0,60.0,29.81,West,265,0.0,0.0,90,0.00,,,0.08,Wunderground v.1.15,2013-02-27 01:40:00,
2013-02-26 20:45:00,62.9,60.2,29.81,West,265,0.0,0.0,91,0.00,,,0.08,Wunderground v.1.15,2013-02-27 01:45:00,
2013-02-26 20:50:00,62.9,60.2,29.81,West,265,0.0,0.0,91,0.00,,,0.08,Wunderground v.1.15,2013-02-27 01:50:00,
2013-02-26 20:55:00,62.9,60.2,29.81,West,265,0.0,0.0,91,0.00,,,0.08,Wunderground v.1.15,2013-02-27 01:55:00,
2013-02-26 21:00:00,62.9,60.5,29.81,West,265,0.0,0.0,92,0.00,,,0.08,Wunderground v.1.15,2013-02-27 02:00:00,
2013-02-26 21:05:00,63.1,60.7,29.81,West,265,0.0,0.0,92,0.00,,,0.08,Wunderground v.1.15,2013-02-27 02:05:00,
2013-02-26 21:10:00,63.3,60.9,29.81,West,265,1.0,3.0,92,0.00,,,0.08,Wunderground v.1.15,2013-02-27 02:10:00,
2013-02-26 21:15:00,63.5,61.1,29.82,West,265,1.0,3.0,92,0.00,,,0.08,Wunderground v.1.15,2013-02-27 02:15:00,
2013-02-26 21:20:00,63.7,61.3,29.82,West,265,0.0,0.0,92,0.00,,,0.08,Wunderground v.1.15,2013-02-27 02:20:00,
2013-02-26 21:25:00,63.9,61.8,29.82,West,265,1.0,1.0,93,0.00,,,0.08,Wunderground v.1.15,2013-02-27 02:25:00,
2013-02-26 21:30:00,64.1,62.0,29.83,West,265,2.0,2.0,93,0.00,,,0.08,Wunderground v.1.15,2013-02-27 02:30:00,
2013-02-26 21:35:00,64.2,62.1,29.82,West,265,1.0,2.0,93,0.00,,,0.08,Wunderground v.1.15,2013-02-27 02:35:00,
2013-02-26 21:40:00,64.3,62.2,29.82,West,265,1.0,1.0,93,0.00,,,0.08,Wunderground v.1.15,2013-02-27 02:40:00,
2013-02-26 21:45:00,64.3,62.2,29.83,West,265,1.0,1.0,93,0.00,,,0.08,Wunderground v.1.15,2013-02-27 02:45:00,
2013-02-26 21:50:00,64.2,62.1,29.83,West,265,1.0,2.0,93,0.00,,,0.08,Wunderground v.1.15,2013-02-27 02:50:00,
2013-02-26 21:55:00,64.2,62.1,29.83,West,265,1.0,2.0,93,0.00,,,0.08,Wunderground v.1.15,2013-02-27 02:55:00,
2013-02-26 22:00:00,64.2,62.1,29.83,West,265,1.0,1.0,93,0.00,,,0.08,Wunderground v.1.15,2013-02-27 03:00:00,
2013-02-26 22:05:00,64.2,62.1,29.83,West,265,1.0,1.0,93,0.00,,,0.08,Wunderground v.1.15,2013-02-27 03:05:00,
2013-02-26 22:10:00,64.2,62.1,29.83,West,265,1.0,1.0,93,0.00,,,0.08,Wunderground v.1.15,2013-02-27 03:10:00,
2013-02-26 22:20:00,64.3,62.2,29.84,West,265,2.0,2.0,93,0.00,,,0.08,Wunderground v.1.15,2013-02-27 03:20:00,
2013-02-26 22:25:00,64.3,62.5,29.84,WSW,257,2.0,3.0,94,0.00,,,0.08,Wunderground v.1.15,2013-02-27 03:25:00,
2013-02-26 22:30:00,64.3,62.5,29.84,WSW,256,2.0,2.0,94,0.00,,,0.08,Wunderground v.1.15,2013-02-27 03:30:00,
2013-02-26 22:35:00,64.4,62.6,29.84,WSW,253,2.0,2.0,94,0.00,,,0.08,Wunderground v.1.15,2013-02-27 03:35:00,
2013-02-26 22:40:00,64.3,62.5,29.84,WSW,253,1.0,1.0,94,0.00,,,0.08,Wunderground v.1.15,2013-02-27 03:40:00,
2013-02-26 22:45:00,64.2,62.4,29.84,WSW,253,1.0,3.0,94,0.00,,,0.08,Wunderground v.1.15,2013-02-27 03:45:00,
2013-02-26 22:50:00,64.1,62.3,29.84,WSW,253,1.0,1.0,94,0.00,,,0.08,Wunderground v.1.15,2013-02-27 03:50:00,
2013-02-26 23:00:00,63.8,62.0,29.84,WSW,253,0.0,0.0,94,0.00,,,0.08,Wunderground v.1.15,2013-02-27 04:00:00,
2013-02-26 23:05:00,63.8,62.0,29.85,WSW,253,0.0,0.0,94,0.00,,,0.08,Wunderground v.1.15,2013-02-27 04:05:00,
2013-02-26 23:10:00,63.8,62.0,29.85,WSW,253,1.0,1.0,94,0.00,,,0.08,Wunderground v.1.15,2013-02-27 04:10:00,
2013-02-26 23:20:00,63.8,62.0,29.85,WSW,253,1.0,1.0,94,0.00,,,0.08,Wunderground v.1.15,2013-02-27 04:20:00,
2013-02-26 23:25:00,63.7,61.9,29.85,WSW,253,1.0,1.0,94,0.00,,,0.08,Wunderground v.1.15,2013-02-27 04:25:00,
2013-02-26 23:30:00,63.6,61.8,29.85,WSW,253,0.0,0.0,94,0.00,,,0.08,Wunderground v.1.15,2013-02-27 04:30:00,
2013-02-26 23:35:00,63.5,61.7,29.85,WSW,253,0.0,0.0,94,0.00,,,0.08,Wunderground v.1.15,2013-02-27 04:35:00,
2013-02-26 23:40:00,63.5,61.7,29.85,WSW,253,0.0,0.0,94,0.00,,,0.09,Wunderground v.1.15,2013-02-27 04:40:00,
2013-02-26 23:45:00,63.4,61.6,29.85,WSW,253,0.0,0.0,94,0.00,,,0.09,Wunderground v.1.15,2013-02-27 04:45:00,
2013-02-26 23:55:00,63.1,61.3,29.85,WSW,253,0.0,2.0,94,0.00,,,0.09,Wunderground v.1.15,2013-02-27 04:55:00,